This is the latest recevied weather packets stored in our database for station/object W6TKD-13. If no packets are shown the sender has not sent any weather packets the latest 10 day(s).
| Time | Temp. | Humidity | Pressure | Rain* | Wind** | Luminosity | Snow |
|---|---|---|---|---|---|---|---|
| 1777649819 | 15° C | 55% | 1014.5 hPa | 0 mm | - | - | - |
| 1777649151 | 13.89° C | 54% | 1014.6 hPa | 0 mm | - | - | - |
| 1777648484 | 12.78° C | 55% | 1014.5 hPa | 0 mm | - | - | - |
| 1777647819 | 12.22° C | 54% | 1014.5 hPa | 0 mm | - | - | - |
| 1777647151 | 11.11° C | 54% | 1014.5 hPa | 0 mm | - | - | - |
| 1777646485 | 10.56° C | 54% | 1014.4 hPa | 0 mm | - | - | - |
| 1777645818 | 10° C | 54% | 1014.4 hPa | 0 mm | - | - | - |
| 1777645150 | 9.44° C | 54% | 1014.3 hPa | 0 mm | - | - | - |
| 1777644483 | 9.44° C | 54% | 1014.3 hPa | 0 mm | - | - | - |
| 1777643815 | 9.44° C | 53% | 1014.1 hPa | 0 mm | - | - | - |
| 1777643148 | 8.89° C | 53% | 1014.1 hPa | 0 mm | - | - | - |
| 1777642482 | 8.89° C | 53% | 1013.9 hPa | 0 mm | - | - | - |
| 1777641815 | 8.89° C | 53% | 1013.9 hPa | 0 mm | - | - | - |
| 1777641149 | 9.44° C | 53% | 1013.8 hPa | 0 mm | - | - | - |
| 1777640481 | 9.44° C | 52% | 1013.7 hPa | 0 mm | - | - | - |
| 1777639815 | 9.44° C | 52% | 1013.7 hPa | 0 mm | - | - | - |
| 1777639149 | 9.44° C | 52% | 1013.7 hPa | 0 mm | - | - | - |
| 1777638479 | 9.44° C | 52% | 1013.6 hPa | 0 mm | - | - | - |
| 1777637813 | 10° C | 52% | 1013.5 hPa | 0 mm | - | - | - |
| 1777637146 | 10° C | 52% | 1013.5 hPa | 0 mm | - | - | - |
| 1777636479 | 10° C | 52% | 1013.6 hPa | 0 mm | - | - | - |
| 1777635146 | 10.56° C | 52% | 1013.7 hPa | 0 mm | - | - | - |
| 1777634478 | 10.56° C | 52% | 1013.7 hPa | 0 mm | - | - | - |
| 1777633813 | 10.56° C | 52% | 1013.7 hPa | 0 mm | - | - | - |
| 1777632476 | 11.11° C | 51% | 1013.8 hPa | 0 mm | - | - | - |
* Rain since midnight (hover to see other rain measurements)
** Current wind speed in m/s (hover to see current wind gust speed)